User: anonymous   Login
Location: Ottawa
(45.4167°N, 75.7000°W)
Time: 15:06:51
(UTC-04:00)
Language:

Tiangong 2 - Orbit

View from above orbital plane
View from above orbital plane
View from above satellite
View from above satellite

Ground track
Ground track

The orbit data is extracted from the following two-line orbital elements,

1 41765U 16057A   18176.24779060  .00002919  00000-0  41308-4 0  9991
2 41765  42.7835 292.3464 0007996 315.6849 124.7746 15.58913099101284
Epoch (UTC): 25 June 2018 05:56:49
Eccentricity: 0.0007996
inclination: 42.7835°
perigee height: 385 km
apogee height: 396 km
right ascension of ascending node: 292.3464°
argument of perigee: 315.6849°
revolutions per day: 15.58913099
mean anomaly at epoch: 124.7746°
orbit number at epoch: 10128

The dashed part of the orbit path shows where the satellite is in the earth's shadow,  

DLR